User: anonymous   Login
Location: Caltech
(34.1382°N, 118.1253°W)
Time: 18:47:37
(UTC-07:00)
Language:

Cosmos 2333 Rocket - Orbit

View from above orbital plane
View from above orbital plane
View from above satellite
View from above satellite

Ground track
Ground track

The orbit data is extracted from the following two-line orbital elements,

1 24298U 96051B   15116.04225523 -.00000134  00000-0 -46364-4 0  9990
2 24298 070.8467 272.9772 0018441 266.1724 232.4715 14.12424804961247
Epoch (UTC): 26 April 2015 01:00:50
Eccentricity: 0.0018441
inclination: 70.8467°
perigee height: 838 km
apogee height: 864 km
right ascension of ascending node: 272.9772°
argument of perigee: 266.1724°
revolutions per day: 14.12424804
mean anomaly at epoch: 232.4715°
orbit number at epoch: 96124

The dashed part of the orbit path shows where the satellite is in the earth's shadow,  

DLR